Location: Ariel
(45.9570°N, 122.5700°W)
Time: 21:33:37
(UTC-07:00)

Tiros 1 - Pass Details

Date: 29 July 2019
Orbit: 630 x 664 km, 48.4° (Epoch: 19 August)

Event Time Altitude Azimuth Distance (km) Brightness Sun altitude
Rises 10:22:28 0° 230° (SW) 2,961 10.3 45.0°
Reaches altitude 10° 10:24:50 10° 225° (SW) 2,058 9.7 45.4°
Maximum altitude 10:29:26 51° 150° (SSE) 828 9.2 46.1°
Drops below altitude 10° 10:34:05 10° 75° (ENE) 2,081 10.4 46.9°
Sets 10:36:30 0° 71° (ENE) 2,998 11.0 47.2°
